Regional Weather Roundup
Issued by NWS

Home | Current Version | Previous Version | Text Only | Print | Product List | Glossary On
Versions: 1 2 3 4 5 6 7 8 9 10 11 12 13 14 15 16 17 18 19 20 21 22 23 24 25 26 27 28 29 30 31 32 33 34 35 36 37 38 39 40 41 42 43 44 45 46 47 48 49 50
000
ASUS43 KDTX 240910
RWRMI
MICHIGAN HOURLY REGIONAL WEATHER ROUNDUP
NATIONAL WEATHER SERVICE DETROIT/PONTIAC MI
ISSUED BY NATIONAL WEATHER SERVICE GRAND RAPIDS MI
500 AM EDT THU MAY 24 2018

NOTE: "FAIR" INDICATES FEW OR NO CLOUDS BELOW 12,000 FEET WITH NO
SIGNIFICANT WEATHER AND/OR OBSTRUCTION TO VISIBILITY.

MIZ047>049-052>055-059>063-066>070-074>076-081>083-241000-
SOUTHEAST LOWER MICHIGAN

CITY           SKY/WX    TMP DP  RH WIND       PRES   REMARKS
ADRIAN         FAIR      54  53  97 CALM      30.21S
ALMA           FAIR      51  51  99 CALM      30.20S
ANN ARBOR      FAIR      49  49 100 CALM      30.20F
BAD AXE        FAIR      50  48  93 CALM      30.19S
DETROIT CITY   FAIR      57  51  80 CALM      30.19S
DETROIT        FAIR      61  51  70 CALM      30.20S
FLINT          FAIR      50  49  96 CALM      30.20S
GROSSE ILE     FAIR      56  53  90 CALM      30.19S
HILLSDALE      FAIR      50  48  93 CALM      30.21R
HOWELL         FAIR      51  49  93 CALM      30.20S

CITY           SKY/WX    TMP DP  RH WIND       PRES   REMARKS
JACKSON        FAIR      52  51  97 CALM      30.21S
LANSING        FAIR      53  52  96 CALM      30.20S
MASON          FAIR      53  51  94 CALM      30.21S
MONROE         FAIR      53  51  93 CALM      30.19S
MT. CLEMENS    FAIR      52  52 100 CALM      30.18S
PONTIAC        FAIR      54  53  97 CALM      30.19S
PORT HOPE        N/A     61  52  72 W6        30.16R
PORT HURON     FAIR      46  45  93 CALM      30.19S FOG
TRI CITIES     FAIR      60  53  77 W5        30.19S
YPSILANTI      FAIR      58  52  80 SW3       30.20S
$$
MIZ043>046-050>051-056>058-064>065-071>073-077>080-241000-
SOUTHWEST LOWER MICHIGAN

CITY           SKY/WX    TMP DP  RH WIND       PRES   REMARKS
BATTLE CREEK   FAIR      53  51  93 CALM      30.21S
BENTON HARBOR  FAIR      51  49  92 E3        30.18S
BIG RAPIDS     FAIR      48  46  93 CALM      30.19S
COLDWATER      FOG       54  54 100 CALM      30.21R VSB 3/4
HOLLAND        FAIR      54  52  93 CALM      30.19S FOG
GRAND RAPIDS   FAIR      52  49  89 CALM      30.19S
KALAMAZOO      FOG       54  52  93 CALM      30.20S VSB 1/4
MARSHALL       FAIR      52  50  95 CALM      30.21S
MOUNT PLEASANT FAIR      54  53  99 CALM      30.19S
MUSKEGON       FAIR      52  48  86 SE3       30.18S
STURGIS        FAIR      56  53  91 CALM      30.20R
$$
MIZ016>042-241000-
NORTHERN LOWER MICHIGAN

CITY           SKY/WX    TMP DP  RH WIND       PRES   REMARKS
ALPENA         FAIR      50  48  93 CALM      30.17S
BEAVER ISLAND  FAIR      48  45  88 CALM      30.15S
BELLAIRE       FOG       47  46  97 CALM      30.18S VSB 1/2
CADILLAC       FAIR      45  44  98 CALM      30.20R
CHARLEVOIX     FAIR      51  51 100 SE3       30.19S
GAYLORD        FAIR      51  49  92 SW3       30.18F
HOUGHTON LAKE  FAIR      50  49  96 CALM      30.20S FOG
MANISTEE       FAIR      48  48 100 E5        30.18R
OSCODA         FAIR      54  47  80 NW3       30.16S
PELLSTON       FAIR      45  44  97 CALM      30.16F FOG
TRAVERSE CITY  FAIR      51  48  89 CALM      30.16S
LUDINGTON      FAIR      47  47 100 CALM      30.17S
$$
MIZ007>008-015-241000-
EASTERN UPPER MICHIGAN

CITY           SKY/WX    TMP DP  RH WIND       PRES   REMARKS
KINROSS        FAIR      51  49  92 SW6       30.14F
MACKINAC ISLAN FAIR      51  51 100 SW8       30.15F
NEWBERRY       FAIR      47  47  97 S8        30.13S
S. S. MARIE    FAIR      52  49  89 E3        30.14S
$$
MIZ004>006-011>014-085-241000-
CENTRAL UPPER MICHIGAN

CITY           SKY/WX    TMP DP  RH WIND       PRES   REMARKS
MANISTIQUE     FAIR      43  42  95 S3        30.13S
ESCANABA       FAIR      50  49  96 W3        30.13S
MENOMINEE      FAIR      57  55  93 CALM      30.14S
SAWYER-GWINN   FAIR      51  45  80 CALM      30.12S
$$
MIZ001>003-009>011-084-241000-
WESTERN UPPER MICHIGAN

CITY           SKY/WX    TMP DP  RH WIND       PRES   REMARKS
IRON MOUNTAIN  FAIR      56  53  90 CALM      30.13R
HOUGHTON       FAIR      59  47  64 NW6       30.08S
COPPER HARBOR    N/A     52  43  71 N6        30.07R
IRONWOOD       FAIR      61  57  87 CALM      30.11
$$

ABBREVIATIONS USED IN REMARKS
   TC - TEMPERATURE IN CELSIUS
  WCI - WIND CHILL INDEX
   HX - HEAT INDEX
  VSB - VISIBILITY





USA.gov is the U.S. government's official web portal to all federal, state and local government web resources and services.